Find Starlink 31321

NORAD ID: 58887 Int'l Des: 2024-020 Owner: SPXS Country: US Constellation: starlink operational
LEOCIRCULAR

現在のビュー

3D地球を読み込み中...

About Starlink 31321

Starlink 31321 (NORAD 58887) is a starlink constellation satellite (v2 mini) launched Jan 29, 2024 by SPXS of US. It operates in LEO, CIRCULAR orbit with a mass of 730.00 kg.

Starlink 31321について

説明を読み込み中...

次回通過

Passes for default location (London). Set your location on the main map for personalized predictions.

高度履歴

Loading altitude history...

軌道要素

1 58887U 24020M 26173.44189676 -.00000900 00000-0 -15519-4 0 9994
2 58887 53.1597 194.8296 0001246 96.3117 263.8028 15.34383175135285
Epoch: Jun 22, 2026 • Age: 20 hours

現在のステータス

高度 471.9 km
速度 7.63 km/s
衛星直下点 -28.31°S, 154.22°E
打ち上げ日 Jan 29, 2024
運用期間 2.3 years
タイプ internet

技術仕様

分類 Payload
質量 730.00 kg
乾燥質量 700.00 kg
総質量 730.00 kg
長さ 0.30 m
直径 4.10 m
スパン 29.00 m
形状 Box + pan
製造者 SPXS
バスタイプ Starlink V2M
フェーズステータス In Orbit
所有者/国 SPXS/US

Most Searched